Waarnemingen

Advertentie
Mijn weer
Volkel, Nederland (6375): temperatuur & dauwpunt: 13.06.2018 22:00:00 - 19.06.2018 22:00:00 (CEST)Volkel, Nederland (6375): temperatuur 5cm: 13.06.2018 22:00:00 - 19.06.2018 22:00:00 (CEST)Volkel, Nederland (6375): windsnelheid & windstoten: 13.06.2018 22:00:00 - 19.06.2018 22:00:00 (CEST)Volkel, Nederland (6375): windrichting: 13.06.2018 22:00:00 - 19.06.2018 22:00:00 (CEST)Volkel, Nederland (6375): luchtdruk: 13.06.2018 22:00:00 - 19.06.2018 22:00:00 (CEST)Volkel, Nederland (6375): zicht: 13.06.2018 22:00:00 - 19.06.2018 22:00:00 (CEST)Volkel, Nederland (6375): neerslag: 13.06.2018 22:00:00 - 19.06.2018 22:00:00 (CEST)
Datum & Tijd tt [°C] td [°C] tt 5cm [°C] ff [km/u] ff [kn] fx [km/u] fx [kn] dd ppp [hPa] vv [km] rr [mm]
19.06.2018 22:00:00 19,0 16,0 18,2 4 2 - - ZZW 1024,0 10 -
19.06.2018 21:00:00 19,4 15,6 19,0 8 4 14 8 ZW 1023,7 10 0,0
19.06.2018 20:00:00 20,0 15,6 19,8 5 3 14 8 WZW 1023,8 10 0,0
19.06.2018 19:00:00 20,5 15,5 20,5 11 6 18 10 ZW 1024,0 10 0,0
19.06.2018 18:00:00 20,3 15,3 20,6 11 6 25 14 WZW 1024,0 30 0,0
19.06.2018 17:00:00 21,0 15,4 22,0 9 5 29 16 W 1024,1 10 0,0
19.06.2018 16:00:00 21,2 15,5 22,9 18 10 25 14 WZW 1024,1 10 0,0
19.06.2018 15:00:00 20,8 15,7 22,2 15 8 29 16 WZW 1024,1 10 0,0
19.06.2018 14:00:00 20,4 15,3 21,3 15 8 22 12 WZW 1023,9 10 0,0
19.06.2018 13:00:00 20,3 15,5 21,5 11 6 22 12 WZW 1023,8 10 0,0
19.06.2018 12:00:00 19,6 16,2 20,9 11 6 25 14 WZW 1023,6 10 0,0
19.06.2018 11:00:00 18,0 16,2 18,5 15 8 22 12 WZW 1023,6 10 0,0
19.06.2018 10:00:00 16,7 15,2 17,1 13 7 22 12 WZW 1023,4 3,7 0,0
19.06.2018 09:00:00 16,5 14,6 16,2 15 8 22 12 ZW 1022,7 9 0,0
19.06.2018 08:00:00 15,9 13,9 15,8 15 8 22 12 ZW 1022,4 10 0,0
19.06.2018 07:00:00 15,0 13,1 14,8 15 8 25 14 ZW 1022,1 10 0,0
19.06.2018 06:00:00 14,4 12,3 14,1 16 9 25 14 ZW 1021,7 10 0,0
19.06.2018 05:00:00 14,3 11,9 14,0 18 10 25 14 ZW 1021,3 29 0,0
19.06.2018 04:00:00 14,6 11,7 14,2 14 8 25 14 ZW 1021,1 39 0,0
19.06.2018 03:00:00 14,9 11,8 14,1 14 8 25 14 ZW 1020,9 44 0,0
19.06.2018 02:00:00 14,4 11,5 13,0 11 6 18 10 ZW 1020,7 49 0,0
19.06.2018 01:00:00 12,6 10,9 10,4 8 4 14 8 ZW 1020,9 10 0,0
19.06.2018 00:00:00 14,1 11,5 13,0 13 7 22 12 WZW 1021,2 10 0,0
18.06.2018 23:00:00 14,1 11,7 10,4 8 4 14 8 ZW 1021,0 10 0,0
18.06.2018 22:00:00 16,1 12,5 14,7 8 4 11 6 WZW 1020,4 10 0,0
18.06.2018 21:00:00 17,6 12,2 16,6 13 7 29 16 WZW 1020,3 10 0,0
18.06.2018 20:00:00 18,6 12,4 18,5 18 10 32 18 WZW 1020,3 10 0,0
18.06.2018 19:00:00 18,8 13,2 18,7 18 10 32 18 W 1020,1 10 0,0
18.06.2018 18:00:00 19,9 14,0 20,3 21 11 32 18 WZW 1019,8 10 0,0
18.06.2018 17:00:00 20,0 15,2 20,3 15 8 25 14 WZW 1019,9 10 0,0
18.06.2018 16:00:00 19,5 15,3 19,7 22 12 29 16 WZW 1020,3 23 0,0
18.06.2018 15:00:00 18,5 15,4 19,0 16 9 29 16 WZW 1020,2 10 0,0
18.06.2018 14:00:00 17,9 15,2 18,2 16 9 32 18 ZW 1020,4 10 0,0
18.06.2018 13:00:00 17,9 15,2 18,3 18 10 36 19 ZW 1020,3 10 0,0
18.06.2018 12:00:00 17,9 14,9 18,3 21 11 32 18 ZW 1019,8 10 0,0
18.06.2018 11:00:00 18,2 13,9 18,1 18 10 32 18 ZW 1019,6 10 0,0
18.06.2018 10:00:00 18,6 13,7 18,7 18 10 32 18 ZW 1019,6 10 0,0
18.06.2018 09:00:00 17,4 12,8 17,6 18 10 29 16 ZZW 1019,3 10 0,0
18.06.2018 08:00:00 16,9 12,6 16,7 18 10 32 18 ZW 1019,2 10 0,0
18.06.2018 07:00:00 16,1 11,8 15,7 13 7 22 12 ZZW 1019,1 10 0,0
18.06.2018 06:00:00 15,8 11,6 15,2 13 7 25 14 ZZW 1019,1 10 0,0
18.06.2018 05:00:00 15,6 11,5 15,2 18 10 43 23 ZZW 1019,0 10 0,0
18.06.2018 04:00:00 15,5 11,5 14,9 11 6 22 12 ZZW 1018,9 10 0,0
18.06.2018 03:00:00 15,5 11,1 14,9 13 7 25 14 ZZW 1019,2 10 0,0
18.06.2018 02:00:00 15,4 11,1 14,7 15 8 22 12 ZW 1019,5 10 0,0
18.06.2018 01:00:00 14,5 11,7 13,5 4 2 11 6 - 1019,6 10 0,0
18.06.2018 00:00:00 15,1 11,7 13,6 8 4 7 4 Z 1019,5 10 0,0
17.06.2018 23:00:00 14,6 12,0 13,7 2 1 4 2 Z 1019,5 10 0,0
17.06.2018 22:00:00 14,8 11,9 14,2 2 1 4 2 Z 1019,4 10 0,0
17.06.2018 21:00:00 15,5 11,8 14,9 4 2 11 6 - 1019,3 10 0,0
17.06.2018 20:00:00 15,6 11,3 15,6 8 4 18 10 ZW 1019,2 10 0,0
17.06.2018 19:00:00 15,6 11,9 15,6 5 3 36 19 W 1019,1 10 0,0
17.06.2018 18:00:00 15,3 11,1 15,8 16 9 36 19 W 1018,9 10 0,0
17.06.2018 17:00:00 17,8 10,1 18,2 15 8 29 16 WZW 1018,4 10 0,0
17.06.2018 16:00:00 18,2 10,2 17,6 15 8 29 16 WZW 1018,3 10 0,0
17.06.2018 15:00:00 17,2 10,1 17,5 18 10 29 16 ZW 1018,2 10 0,0
17.06.2018 14:00:00 17,3 9,9 17,3 21 11 32 18 WZW 1017,9 10 0,0
17.06.2018 13:00:00 17,8 9,9 18,7 22 12 32 18 WZW 1017,6 10 0,0
17.06.2018 12:00:00 16,8 9,9 16,8 18 10 36 19 WZW 1017,4 10 0,0
17.06.2018 11:00:00 16,7 9,7 17,3 18 10 40 21 WZW 1017,2 10 0,0
17.06.2018 10:00:00 16,4 10,1 16,9 22 12 36 19 ZW 1016,9 10 0,0
17.06.2018 09:00:00 15,9 10,6 16,2 24 13 36 19 ZW 1016,6 10 0,0
17.06.2018 08:00:00 15,2 10,3 15,1 21 11 29 16 ZW 1016,0 10 0,0
17.06.2018 07:00:00 14,6 10,4 14,0 18 10 29 16 ZW 1015,8 10 0,0
17.06.2018 06:00:00 13,7 10,1 12,1 15 8 22 12 ZW 1015,7 10 0,0
17.06.2018 05:00:00 13,4 9,8 12,0 15 8 25 14 ZW 1015,5 10 0,0
17.06.2018 04:00:00 14,5 9,8 13,4 16 9 25 14 ZW 1015,3 10 0,0
17.06.2018 03:00:00 14,2 9,6 12,5 8 4 11 6 ZZW 1015,4 10 0,0
17.06.2018 02:00:00 12,4 9,7 9,6 8 4 11 6 ZW 1015,4 10 0,0
17.06.2018 01:00:00 12,8 10,6 7,3 5 3 7 4 ZW 1015,6 10 0,0
17.06.2018 00:00:00 13,9 11,1 10,4 2 1 7 4 - 1015,6 10 0,0
16.06.2018 23:00:00 13,5 10,5 9,7 2 1 7 4 Z 1015,4 10 0,0
16.06.2018 22:00:00 16,4 10,3 14,5 5 3 18 10 W 1015,3 10 0,0
16.06.2018 21:00:00 17,8 10,5 17,3 9 5 25 14 WNW 1015,1 10 0,0
16.06.2018 20:00:00 18,6 12,2 18,2 11 6 22 12 WNW 1014,6 10 0,0
16.06.2018 19:00:00 19,7 12,4 19,5 11 6 25 14 WNW 1014,5 10 0,0
16.06.2018 18:00:00 20,4 12,2 20,5 11 6 25 14 WNW 1014,0 10 0,0
16.06.2018 17:00:00 22,4 10,7 22,1 18 10 29 16 WZW 1013,9 10 0,0
16.06.2018 16:00:00 22,8 10,6 23,5 18 10 32 18 WZW 1013,8 10 0,0
16.06.2018 15:00:00 23,2 11,0 25,3 16 9 36 19 ZW 1013,9 10 0,0
16.06.2018 14:00:00 22,0 10,9 23,3 16 9 32 18 WZW 1014,7 10 0,0
16.06.2018 13:00:00 21,5 10,9 21,9 24 13 32 18 ZW 1015,2 10 0,0
16.06.2018 12:00:00 21,3 12,1 22,2 15 8 25 14 WZW 1015,5 10 0,0
16.06.2018 11:00:00 20,0 12,3 20,8 13 7 18 10 ZW 1015,4 10 0,0
16.06.2018 10:00:00 19,2 13,3 19,4 13 7 18 10 ZW 1015,4 10 0,0
16.06.2018 09:00:00 17,6 12,8 18,0 9 5 18 10 WZW 1015,3 10 0,0
16.06.2018 08:00:00 16,1 13,2 15,6 5 3 14 8 ZW 1015,3 8 0,0
16.06.2018 07:00:00 14,6 13,4 13,9 7 4 11 6 ZW 1015,1 6 0,0
16.06.2018 06:00:00 13,6 12,9 12,0 11 6 18 10 WZW 1014,8 6 0,0
16.06.2018 05:00:00 12,7 12,1 10,6 4 2 7 4 ZW 1015,0 9 0,0
16.06.2018 04:00:00 14,4 12,6 12,6 4 2 11 6 WNW 1015,0 10 0,0
16.06.2018 03:00:00 13,9 12,9 11,0 4 2 4 2 N 1015,0 10 0,0
16.06.2018 02:00:00 14,1 13,0 9,9 4 2 7 4 ONO 1015,2 12 0,0
16.06.2018 01:00:00 14,0 12,9 9,7 4 2 7 4 NO 1015,4 14 0,0
16.06.2018 00:00:00 15,1 12,9 10,3 5 3 7 4 N 1015,6 10 0,0
15.06.2018 23:00:00 15,0 12,8 10,2 2 1 7 4 N 1015,5 10 0,0
15.06.2018 22:00:00 16,6 12,9 13,7 2 1 7 4 O 1015,4 10 0,0
15.06.2018 21:00:00 20,4 13,5 20,1 5 3 7 4 N 1015,6 10 0,0
15.06.2018 20:00:00 22,5 12,2 22,3 4 2 7 4 - 1015,6 10 0,0
15.06.2018 19:00:00 22,8 10,5 22,6 4 2 7 4 - 1015,8 10 0,0
15.06.2018 18:00:00 22,5 11,3 22,8 4 2 14 8 - 1015,7 10 0,0
15.06.2018 17:00:00 23,6 11,7 25,7 4 2 14 8 - 1015,7 10 0,0
15.06.2018 16:00:00 23,1 10,7 23,5 5 3 18 10 O 1016,4 10 0,0
15.06.2018 15:00:00 22,5 12,5 22,5 8 4 14 8 Z 1016,4 10 0,0
15.06.2018 14:00:00 21,9 12,7 24,3 4 2 18 10 - 1016,6 10 0,0
15.06.2018 13:00:00 21,9 12,5 24,9 9 5 25 14 - 1016,8 10 0,0
15.06.2018 12:00:00 20,6 15,4 21,2 9 5 18 10 ZZW 1017,1 10 0,0
15.06.2018 11:00:00 20,0 14,4 23,0 11 6 18 10 ZO 1017,1 10 0,0
15.06.2018 10:00:00 18,0 15,1 20,9 8 4 18 10 ZO 1016,9 8 0,0
15.06.2018 09:00:00 16,0 14,9 16,7 4 2 7 4 - 1017,1 3,9 0,0
15.06.2018 08:00:00 14,9 14,7 15,5 2 1 7 4 - 1016,6 3,1 0,0
15.06.2018 07:00:00 14,1 14,1 13,9 5 3 11 6 ZW 1016,3 0,1 0,0
15.06.2018 06:00:00 13,6 13,5 13,0 8 4 7 4 WZW 1016,2 0,2 0,0
15.06.2018 05:00:00 13,9 13,8 13,7 5 3 7 4 Z 1016,0 0,5 0,0
15.06.2018 04:00:00 12,3 12,2 8,4 4 2 4 2 - 1015,8 0,3 0,0
15.06.2018 03:00:00 11,4 11,2 8,4 4 2 7 4 O 1016,0 0,2 0,0
15.06.2018 02:00:00 13,7 13,5 10,1 5 3 7 4 ZW 1016,2 0,4 0,0
15.06.2018 01:00:00 14,3 14,0 13,7 8 4 11 6 ZW 1016,2 3,8 0,0
15.06.2018 00:00:00 14,5 14,1 13,6 8 4 11 6 ZW 1016,1 5 0,0
14.06.2018 23:00:00 15,3 14,7 15,0 8 4 18 10 ZW 1015,8 6 0,2
14.06.2018 22:00:00 15,6 14,5 15,4 9 5 18 10 ZZW 1015,6 4,2 0,3
14.06.2018 21:00:00 15,8 14,4 15,6 11 6 18 10 ZZW 1015,0 10 0,0
14.06.2018 20:00:00 16,3 13,9 16,2 15 8 29 16 ZW 1014,7 10 0,0
14.06.2018 19:00:00 16,7 12,9 16,3 21 11 36 19 WZW 1014,4 10 0,0
14.06.2018 18:00:00 18,0 13,2 17,7 21 11 29 16 ZZW 1013,9 10 0,0
14.06.2018 17:00:00 17,9 13,8 17,9 15 8 25 14 Z 1013,6 10 0,0
14.06.2018 16:00:00 16,7 14,1 16,6 13 7 22 12 ZZW 1013,9 10 0,5
14.06.2018 15:00:00 17,2 13,8 16,9 16 9 36 19 ZZW 1013,9 10 0,6
14.06.2018 14:00:00 20,2 10,2 20,5 24 13 36 19 ZZW 1013,7 10 0,0
14.06.2018 13:00:00 20,4 10,7 20,8 28 15 40 21 ZZW 1014,2 10 0,0
14.06.2018 12:00:00 19,7 10,9 20,4 26 14 36 19 ZZW 1014,2 10 0,0
14.06.2018 11:00:00 19,9 10,7 21,2 26 14 40 21 ZW 1014,3 10 0,0
14.06.2018 10:00:00 18,4 11,7 19,3 18 10 29 16 ZZW 1014,8 10 0,0
14.06.2018 09:00:00 15,5 10,9 15,7 15 8 25 14 Z 1014,9 10 0,0
14.06.2018 08:00:00 13,8 10,4 13,2 9 5 14 8 Z 1015,1 10 0,0
14.06.2018 07:00:00 11,3 9,2 10,2 8 4 14 8 Z 1015,3 10 0,0
14.06.2018 06:00:00 9,1 7,8 6,8 8 4 11 6 Z 1015,5 10 0,0
14.06.2018 05:00:00 8,7 7,4 2,6 4 2 7 4 - 1015,8 10 0,0
14.06.2018 04:00:00 9,5 8,1 4,2 5 3 11 6 ZW 1016,3 10 0,0
14.06.2018 03:00:00 9,2 7,9 3,4 4 2 4 2 - 1016,6 10 0,0
14.06.2018 02:00:00 10,5 8,9 4,0 2 1 4 2 - 1016,8 10 0,0
14.06.2018 01:00:00 9,6 8,8 3,6 2 1 7 4 WZW 1017,0 10 0,0
14.06.2018 00:00:00 10,0 9,2 3,9 2 1 4 2 ZZW 1017,2 10 0,0
13.06.2018 23:00:00 10,7 10,0 5,7 0 0 4 2 N 1017,4 10 0,0
13.06.2018 22:00:00 12,1 9,7 8,8 2 1 11 6 OZO 1017,5 10 0,0

tt = temperatuur
td = dauwpunt
tt 5cm = temperatuur 5cm
ff = windsnelheid
fx = windstoten
dd = windrichting
ppp = luchtdruk
vv = zicht
rr = neerslag

Weerstations in de omgeving